Regional Weather Roundup
Issued by NWS

Home | Current Version | Previous Version | Graphics & Text | Print | Product List | Glossary On
Versions: 1 2 3 4 5 6 7 8 9 10 11 12 13 14 15 16 17 18 19 20 21 22 23 24 25 26 27 28 29 30 31 32 33 34 35 36 37 38 39 40 41 42 43 44 45 46 47 48 49 50
000
ASUS43 KTOP 210159
RWRKS

WEATHER ROUNDUP FOR KANSAS
NATIONAL WEATHER SERVICE GOODLAND KS
900 PM CDT FRI APR 20 2018

NOTE:  "FAIR" INDICATES FEW OR NO CLOUDS BELOW 12,000 FEET WITH NO
SIGNIFICANT WEATHER AND/OR OBSTRUCTIONS TO VISIBILITY.

KSZ001>006-013>018-027>032-041>047-210300-
NORTHWEST KANSAS

CITY           SKY/WX    TMP DP  RH WIND       PRES   REMARKS
GOODLAND       LGT RAIN  40  38  93 E12       30.12R WCI  33
HAYS           RAIN      51  39  63 NE12G28   30.16R
HILL CITY      RAIN      48  42  80 E10       30.17R
RUSSELL        RAIN      51  40  65 NE13      30.13R
$$

KSZ061>065-074>080-084>089-210300-
SOUTHWEST KANSAS

CITY           SKY/WX    TMP DP  RH WIND       PRES   REMARKS
DODGE CITY     LGT RAIN  46  42  86 NE6       30.12R
GARDEN CITY    LGT RAIN  45  42  89 E12       30.13R FOG
GREAT BEND     CLOUDY    53  37  54 NE10      30.11R
LIBERAL        RAIN      46  44  93 E8        30.12R
$$

KSZ066>073-081>083-090>101-210300-
SOUTHEAST KANSAS

CITY           SKY/WX    TMP DP  RH WIND       PRES   REMARKS
CHANUTE        CLOUDY    60  30  32 E8        30.16S
COFFEYVILLE    MOCLDY    60  33  36 E10       30.12F
HUTCHINSON     CLOUDY    58  31  35 E13       30.11F
MEDICINE LODGE   N/A     57  38  48 E9        30.09R
NEWTON         CLOUDY    55  29  36 E7        30.14F
PARSONS        CLOUDY    60  32  34 E6        30.16R
WICHITA INTL   LGT RAIN  60  30  32 E12       30.10F
WICHITA JABRA  CLOUDY    58  28  32 E8        30.12S
WINFIELD       MOCLDY    60  32  34 E6        30.11R
$$

KSZ007>012-019>026-033>040-048>060-102>105-210300-
NORTHEAST KANSAS

CITY           SKY/WX    TMP DP  RH WIND       PRES   REMARKS
CONCORDIA      CLOUDY    56  27  32 E16G22    30.19F
EMPORIA        PTCLDY    56  29  35 E9        30.17S
LAWRENCE       CLOUDY    58  29  33 NE10G18   30.22F
MANHATTAN      MOCLDY    57  28  33 NE10      30.21S
OLATHE IND     CLOUDY    58  28  32 E12G20    30.23F
OLATHE EXE     CLOUDY    57  27  31 E10       30.23F
SALINA         CLOUDY    60  29  30 E16G23    30.14F
TOPEKA BILLARD MOCLDY    58  29  33 NE8       30.23S
TOPEKA FORBES  CLOUDY    59  27  29 NE6       30.22R
$$




USA.gov is the U.S. government's official web portal to all federal, state and local government web resources and services.